星链-3093 (STARLINK-3093 )

导读

STARLINK-3093是美国太空探索技术公司(SpaceX)星链(Starlink)计划中的一颗卫星,于2021年9月14日发射升空,属于星链星座组网卫星,主要用于为全球提供高速互联网服务,星链系统通过大规模低轨卫星组网,可覆盖偏远地区,满足全球网络接入需求。

基本信息
目录编号:
49141
目录名称:
STARLINK-3093
国际标识:
2021-082M
轨道中心:
EARTH
卫星名称:
星链-3093
卫星全名:
星链-3093 (STARLINK-3093 )
卫星状态:
在轨 (已飞行1823 天)
发射日期:
2021-09-14 UTC
国别 :
美国 (US)
星等 :
--
该卫星已列入 空间交会检测服务 Space Conjunction Data Service (SCDS) ,当前飞行风险评估等级: 无高风险
轨道信息
数据来源 国际轨道数据
星历时间: 2026-09-11T13:39:29+0800
10小时前
查看轨道信息
半长轴: 6950.211km
偏心率: 0.0003104
轨道倾角: 70.000°
近地点辐角 269.454°
升交点赤经 186.638°
平近点角 90.627°
近地点: 569.916km
远地点: 574.232km
周期: 96.107分钟
每日圈数: 14.983244
详细信息
固有亮度:
5
最大亮度:
2.5
卫星平台:
Starlink v1.5
覆盖范围:
全球
运营商:
太空探索技术公司
运营商所在国:
美国
制造商(研发单位):
太空探索技术公司
制造商所在国:
美国
使用方式:
暂无
卫星简介
星链(Starlink)计划是由太空探索技术公司(SpaceX)提出的一个巨型低轨卫星互联网星座项目,计划在2019年至2024年间在太空搭建由约1.2万颗卫星组成的“星链”网络,其中1584颗将部署在地球上空550千米处的近地轨道,并从2020年开始工作。该卫星仍在工作。
2D轨道图
3D轨道图
轨道高度分析图
轨道倾角分析图
轨道综合分析图
查看轨道综合分析图
与全量物体交会距离演化趋势
与全量物体交会风险概率演化趋势